Location: ???????
(55.3754°N, 39.3545°E)
Time: 21:42:48
(UTC+00:00)

ASTEX 1 - Pass Details

Date: 14 April 2026
Orbit: 713 x 733 km, 92.7° (Epoch: 11 May)

Event Time Altitude Azimuth Distance (km) Brightness Sun altitude
Exits shadow 18:21:34 17° 170° (S) 1,783 4.9 -14.9°
Maximum altitude 18:25:22 85° 83° (E) 736 3.3 -15.3°
Drops below altitude 10° 18:30:20 10° 355° (N) 2,238 6.7 -15.8°
Sets 18:32:39 0° 355° (N) 3,167 7.5 -16.0°
